Regional Weather Roundup
Issued by NWS State College, PA

Home | Current Version | Previous Version | Text Only | Print | Product List | Glossary On
Versions: 1 2 3 4 5 6 7 8 9 10 11 12 13 14 15 16 17 18 19 20 21 22 23 24 25 26 27 28 29 30 31 32 33 34 35 36 37 38 39 40 41 42 43 44 45 46 47 48 49 50
000
ASUS41 KCTP 302303
RWRCTP

REGIONAL WEATHER ROUNDUP
NATIONAL WEATHER SERVICE STATE COLLEGE PA
700 PM EDT SAT MAY 30 2015

Note: "fair" indicates few or no clouds below 12,000 feet with no
significant weather and/or obstructions to visibility.

* = STATION THAT DOES NOT REPORT PRECIPITATION /E.G. RAIN...SNOW...ETC/
    THUNDER OR FOG.

PAZ002>004-007>009-013>016-020>023-029>032-310000-
WESTERN PENNSYLVANIA

CITY           SKY/WX    TMP DP  RH WIND       PRES   REMARKS
ERIE           LGT RAIN  71  63  75 NW6       29.97R
MEADVILLE      MOSUNNY   75  65  70 S3        30.00F
FRANKLIN*      PTSUNNY   75  64  69 S13       30.03S
NEW CASTLE     FAIR      80  70  71 CALM      30.01S
BEAVER COUNTY  SUNNY     73  66  78 S8        30.02F
BUTLER*        PTSUNNY   73  66  78 SW7       30.04F
PITTSBURGH INT PTSUNNY   76  67  73 SW7       30.02F
PITTSBURGH     PTSUNNY   73  64  73 S7        30.03F
INDIANA*       SUNNY     73  70  88 SW8       30.08F
LATROBE        PTSUNNY   73  68  83 CALM      30.06F
WASHINGTON CO* PTSUNNY   75  66  73 SW6       30.05F
$$

PAZ004>006-010>012-017>019-024>028-033>037-041-042-045-046-049>053-310000-
CENTRAL PENNSYLVANIA

CITY           SKY/WX    TMP DP  RH WIND       PRES   REMARKS
BRADFORD       PTSUNNY   71  64  78 VRB6      30.04F
DUBOIS         PTSUNNY   74  65  73 SW5       30.06R
CLEARFIELD     PTSUNNY   71  65  81 VRB3      30.06R
JOHNSTOWN      PTSUNNY   77  59  53 SW8       30.09S
ALTOONA        PTSUNNY   77  62  59 SW14      30.08S
STATE COLLEGE  NOT AVBL
WILLIAMSPORT   PTSUNNY   80  66  62 S15G31    29.98F
SELINSGROVE    MOSUNNY   78  66  66 S6        30.02F
FT INDIANTOWN  DRIZZLE   76  71  85 NE1       30.03S
CAPITAL CITY   PTSUNNY   83  63  50 SW9       30.03S
HARRISBURG     PTSUNNY   84  64  50 SW7       30.02F
YORK           CLOUDY    81  64  56 SW5       30.04F
$$

PAZ038>040-043-044-047-048-054-055-060>062-067>071-310000-
EASTERN PENNSYLVANIA

CITY           SKY/WX    TMP DP  RH WIND       PRES   REMARKS
SCRANTON       MOSUNNY   79  64  60 S10G23    30.02F
MOUNT POCONO   LGT RAIN  72  65  78 SW10      30.11F
ALLENTOWN      MOSUNNY   85  61  44 SW14G21   30.04S
QUAKERTOWN*    PTCLDY    82  66  57 SW10G16   30.07S
READING        MOSUNNY   83  62  49 S12G20    30.02F
LANCASTER      MOSUNNY   81  64  56 S15G22    30.04F
COATESVILLE    CLEAR     81  63  54 SW8       30.08F
POTTSTOWN      SUNNY     82  65  56 S9        30.08S
BLUE BELL      MOSUNNY   82  66  57 S10       30.06F
DOYLESTOWN     SUNNY     81  64  56 S7        30.06S
WILLOW GROVE   NOT AVBL
NORTH PHILA    SUNNY     83  62  49 VRB7G20   30.08S
PHILADELPHIA   MOSUNNY   82  65  56 S13       30.07F
$$



USA.gov is the U.S. government's official web portal to all federal, state and local government web resources and services.